Flag for U.S.A. Weather past 2 weeks in Salem, Oregon, U.S.A.

Now
61 °F

Clear.


Feels Like: 61 °F
Forecast: 56 / 82 °F
Wind: 6 mph from Southwest

Location: McNary Field

Current Time: May 29, 2015 at 2:06:51 AM

Latest Report: May 29, 2015 at 12:56 AM


Visibility: 10 mi

Pressure: 29.98 "Hg

Humidity: 70%

Dew point: 51 °F

Location of SalemLocation

Historic Weather in Salem — Graph

°F

Salem temperature yesterday

Maximum temperature yesterday: 85 °F (at 3:56 PM)
Minimum temperature yesterday: 52 °F (at 5:56 AM)
Average temperature yesterday: 69 °F

Past Weeks' High & Low Weather Summary

 TemperatureHumidityPressure
High85 °F (May 28, 3:56 PM)93% (May 14, 3:56 AM)30.19 "Hg (May 14, 3:56 AM)
Low48 °F (May 26, 3:56 AM)31% (May 28, 4:56 PM)29.78 "Hg (May 14, 6:56 PM)
Average60 °F70%30.00 "Hg
* Reported May 14 12:56 AM — May 29 12:56 AM, Salem, Weather by CustomWeather, © 2015

Note: Actual official high and low records may vary slightly from our data, if they occured in-between our weather recording intervals... More about our weather records

Advertising

Salem weather history for previous 24 hours

 ConditionsComfort  
Time TempWeatherWind HumidityBarometerVisibility
12:56 AM
Fri, May 29
61 °FClear.6 mph70%29.98 "Hg10 mi
11:56 PM
Thu, May 28
64 °FClear.No wind63%29.97 "Hg10 mi
10:56 PM66 °FClear.No wind61%29.96 "Hg10 mi
9:56 PM68 °FClear.5 mph59%29.96 "Hg10 mi
8:56 PM73 °FSunny.6 mph50%29.95 "Hg10 mi
7:56 PM77 °FSunny.8 mph45%29.94 "Hg10 mi
6:56 PM81 °FSunny.9 mph41%29.93 "Hg10 mi
5:56 PM84 °FSunny.9 mph38%29.93 "Hg10 mi
4:56 PM85 °FSunny.7 mph31%29.95 "Hg10 mi
3:56 PM85 °FSunny.8 mph36%29.96 "Hg10 mi
2:56 PM83 °FSunny.8 mph36%29.98 "Hg10 mi
1:56 PM81 °FSunny.5 mph41%29.99 "Hg10 mi
12:56 PM78 °FSunny.6 mph45%30.01 "Hg10 mi
11:56 AM75 °FSunny.7 mph50%30.03 "Hg10 mi
10:56 AM72 °FSunny.No wind53%30.04 "Hg10 mi
9:56 AM69 °FSunny.No wind59%30.05 "Hg10 mi
8:56 AM65 °FSunny.No wind66%30.07 "Hg10 mi
7:56 AM62 °FSunny.No wind73%30.06 "Hg10 mi
6:56 AM58 °FSunny.No wind81%30.05 "Hg10 mi
5:56 AM52 °FClear.No wind89%30.04 "Hg10 mi
4:56 AM53 °FClear.No wind86%30.02 "Hg10 mi
3:56 AM54 °FClear.No wind86%30.02 "Hg10 mi
2:56 AM55 °FClear.5 mph87%30.02 "Hg10 mi
Weather by CustomWeather, © 2015

See weather overviewHow to use our weather pages